[[{"header":{"parameterUnit":"m.s-1","parameterCategory":1,"la1":30.2992,"la2":30.254,"lo1":-89.0895,"lo2":-89.0443,"dy":0.0025,"dx":0.0025,"nx":19,"ny":19,"refTime":"2026-03-13T21:00:00:Z","depth":0,"parameterNumber":2,"parameterNumberName":"U-component_of_WINDS"},"data":[0,0,0,-1.1845,-1.1846,-1.1885,-1.1885,-1.1944,-1.1944,0,0,0,0,0,0,0,0,0,0,0,-1.1837,-1.1837,-1.1845,-1.1846,-1.1885,-1.1885,-1.1943,-1.1944,0,0,0,0,0,0,0,0,0,0,0,-1.1837,-1.1837,-1.1838,-1.1846,-1.1885,-1.1885,-1.1943,-1.1911,0,0,0,0,0,0,0,0,0,0,-1.1872,-1.1867,-1.1837,-1.1838,-1.1846,-1.1885,-1.1885,-1.1909,-1.1913,-1.1929,0,-1.1942,0,-1.1944,-1.1948,-1.1949,0,0,0,-1.1844,-1.1864,-1.1872,-1.1838,-1.1847,-1.1885,-1.1867,-1.1911,-1.1916,-1.1934,-1.1943,-1.1945,-1.1945,-1.1949,-1.1949,-1.2044,-1.2044,0,0,-1.1841,-1.1846,-1.1869,-1.1874,-1.1868,-1.1866,-1.1868,-1.1914,-1.1925,-1.1943,-1.1946,-1.1946,-1.1949,-1.195,-1.2043,-1.2044,0,0,0,-1.1837,-1.1845,-1.1851,-1.1872,-1.1879,-1.1867,-1.187,-1.1923,-1.1924,-1.1947,-1.1947,-1.195,-1.195,-1.2043,-1.2044,-1.2075,0,0,0,-1.1835,-1.1842,-1.185,-1.1853,-1.1878,-1.1901,-1.1878,-1.1921,-1.1926,-1.1946,-1.195,-1.1951,-1.2042,-1.2043,-1.2072,-1.2089,0,0,0,-1.1833,-1.1842,-1.1849,-1.1854,-1.187,-1.19,-1.1904,-1.1922,-1.1926,-1.1949,-1.1951,-1.2042,-1.2043,-1.2071,-1.2085,-1.2114,0,0,0,-1.1833,-1.1877,-1.1849,-1.1898,-1.187,-1.1919,-1.1904,-1.194,-1.1963,-1.195,-1.2042,-1.2044,-1.207,-1.2083,-1.2112,-1.2139,-1.2151,0,0,-1.1891,-1.1884,-1.1912,-1.1889,-1.1944,-1.1913,-1.1973,-1.199,-1.1988,-1.2026,-1.2028,-1.2073,-1.2085,-1.2114,-1.2216,-1.2225,0,0,0,-1.1933,-1.1953,-1.1967,-1.1988,-1.2001,-1.2014,-1.2021,-1.2028,-1.2059,-1.2008,-1.2092,-1.2099,-1.2115,-1.2128,-1.2136,-1.215,-1.205,-1.205,-1.2049,-1.2022,-1.2017,-1.2063,-1.2063,-1.2084,-1.2091,-1.2107,-1.2117,-1.2107,-1.2127,-1.2138,-1.22,-1.2215,-1.2221,-1.2235,-1.2152,-1.2152,-1.2152,-1.2152,-1.2107,-1.2135,-1.2119,-1.2158,-1.2153,-1.2186,-1.2195,-1.2186,-1.2217,-1.2191,-1.2206,-1.2177,-1.2231,-1.2244,-1.2154,-1.2154,-1.2154,-1.2154,-1.2153,-1.2164,-1.2177,-1.2183,-1.2213,-1.2237,-1.2235,-1.2265,-1.226,-1.2255,-1.2269,-1.228,-1.228,-1.2278,-1.2275,-1.2275,-1.2275,-1.2276,-1.2276,-1.2276,-1.2221,-1.2227,-1.2253,-1.227,-1.2283,-1.2299,-1.2306,-1.2319,-1.2332,-1.2326,-1.2326,-1.2313,-1.2237,-1.2218,-1.2279,-1.2279,-1.2278,-1.2278,-1.2278,-1.2308,-1.2287,-1.2327,-1.2339,-1.2359,-1.2384,-1.2376,-1.2403,-1.2413,-1.2428,-1.2412,-1.2357,-1.235,-1.2343,-1.2327,-1.2413,-1.2413,-1.2413,-1.2413,-1.2356,-1.2352,-1.239,-1.2411,-1.2431,-1.2427,-1.2473,-1.2479,-1.2483,-1.2489,-1.2476,-1.2455,-1.2448,-1.2445,-1.2436,-1.2421,-1.2529,-1.2529,-1.2529,-1.2409,-1.2406,-1.2445,-1.2447,-1.2463,-1.2476,-1.2519,-1.2544,-1.2544,-1.2534,-1.2494,-1.2489,-1.2454,-1.2443,-1.2431,-1.2418,-1.239,0,0]},{"header":{"parameterUnit":"m.s-1","parameterCategory":1,"la1":30.2992,"la2":30.254,"lo1":-89.0895,"lo2":-89.0443,"dy":0.0025,"dx":0.0025,"nx":19,"ny":19,"refTime":"2026-03-13T21:00:00:Z","depth":0,"parameterNumber":3,"parameterNumberName":"V-component_of_WINDS"},"data":[0,0,0,1.6637,1.6637,1.6656,1.6656,1.6673,1.6674,0,0,0,0,0,0,0,0,0,0,0,1.6629,1.6629,1.6637,1.6637,1.6656,1.6656,1.6673,1.6674,0,0,0,0,0,0,0,0,0,0,0,1.6629,1.6629,1.6629,1.6637,1.6656,1.6656,1.6673,1.6661,0,0,0,0,0,0,0,0,0,0,1.6644,1.6634,1.6629,1.6629,1.6637,1.6656,1.6656,1.6661,1.6662,1.6663,0,1.6663,0,1.6669,1.6674,1.6674,0,0,0,1.6639,1.6633,1.6641,1.6629,1.6637,1.6656,1.6648,1.6662,1.6663,1.6664,1.6664,1.6664,1.6669,1.6674,1.6675,1.6672,1.6672,0,0,1.6638,1.663,1.664,1.6641,1.6639,1.6647,1.6648,1.6663,1.6661,1.6664,1.6665,1.6669,1.6675,1.6675,1.6673,1.6672,0,0,0,1.6634,1.6629,1.6637,1.6641,1.6644,1.6648,1.6649,1.666,1.6663,1.6665,1.6669,1.6675,1.6675,1.6673,1.6673,1.6659,0,0,0,1.6633,1.6627,1.6636,1.6632,1.6644,1.6653,1.6646,1.6662,1.6664,1.6669,1.6675,1.6675,1.6673,1.6673,1.666,1.6654,0,0,0,1.6628,1.6627,1.6628,1.6631,1.6639,1.6653,1.6657,1.6663,1.6667,1.6674,1.6675,1.6673,1.6673,1.6661,1.6655,1.6651,0,0,0,1.6621,1.6617,1.6628,1.6626,1.6639,1.6645,1.6657,1.6662,1.6667,1.6675,1.6673,1.6673,1.6661,1.6656,1.6651,1.6645,1.6642,0,0,1.6612,1.6616,1.6615,1.6625,1.6627,1.6643,1.6643,1.6655,1.6663,1.6668,1.6669,1.666,1.6655,1.6651,1.6628,1.6626,0,0,0,1.6609,1.6609,1.6611,1.6615,1.6624,1.6631,1.6644,1.6648,1.6653,1.6664,1.6658,1.6655,1.6653,1.665,1.6648,1.6645,1.6671,1.6671,1.6671,1.6586,1.6595,1.6594,1.6606,1.661,1.6623,1.6626,1.6634,1.6643,1.6641,1.6643,1.6628,1.6625,1.6623,1.6621,1.6641,1.6641,1.6641,1.6641,1.6573,1.6573,1.6584,1.6587,1.6597,1.6599,1.6611,1.6617,1.662,1.6628,1.6627,1.6634,1.662,1.6618,1.664,1.664,1.6641,1.6641,1.6641,1.6558,1.6559,1.6564,1.6571,1.6574,1.6586,1.6588,1.6597,1.6606,1.6605,1.6606,1.6606,1.6607,1.6605,1.6605,1.6605,1.6605,1.6605,1.6605,1.654,1.6546,1.6546,1.6555,1.6558,1.6563,1.6575,1.6578,1.6584,1.6591,1.6591,1.6599,1.6617,1.6621,1.6604,1.6604,1.6604,1.6604,1.6604,1.6522,1.6527,1.6528,1.6531,1.654,1.6542,1.6554,1.656,1.6564,1.6564,1.6572,1.6585,1.6589,1.6591,1.6594,1.6571,1.6571,1.6571,1.6571,1.6508,1.6511,1.6513,1.6517,1.6523,1.6533,1.6532,1.654,1.655,1.6553,1.6557,1.6563,1.6564,1.6568,1.657,1.6573,1.6545,1.6545,1.6545,1.6497,1.6501,1.6499,1.6508,1.6516,1.6522,1.6521,1.6524,1.6536,1.6544,1.6555,1.6556,1.6564,1.6567,1.6574,1.6577,1.6583,0,0]}]]